• In Uzbekistan
  • List of Countries
  • For 7 days
  • Water Temperature
  • Satellite Maps
  • Weather Map
  • Weather Widgets
  • user-avatar
    Login

    Hourly Weather Gold Coast

    Today, 20 August, Sunday

    Time Temperature Precipitation Wind Pressure Humidity
    00:00 +9°C° 0 mm 6 mps 759 mmHg 39%
    01:00 +8°C° 0 mm 7 mps 759 mmHg 42%
    02:00 +8°C° 0 mm 7 mps 759 mmHg 44%
    03:00 +8°C° 0 mm 7 mps 759 mmHg 46%
    04:00 +8°C° 0 mm 7 mps 759 mmHg 46%
    05:00 +8°C° 0 mm 7 mps 759 mmHg 47%
    06:00 +8°C° 0 mm 7 mps 760 mmHg 48%
    07:00 +8°C° 0 mm 6 mps 760 mmHg 49%
    08:00 +10°C° 0 mm 7 mps 760 mmHg 45%
    09:00 +14°C° 0 mm 7 mps 760 mmHg 41%
    10:00 +17°C° 0 mm 7 mps 760 mmHg 37%
    11:00 +18°C° 0 mm 7 mps 760 mmHg 35%
    12:00 +20°C° 0 mm 7 mps 760 mmHg 34%
    13:00 +21°C° 0 mm 6 mps 759 mmHg 32%
    14:00 +21°C° 0 mm 6 mps 759 mmHg 34%
    15:00 +20°C° 0 mm 6 mps 759 mmHg 36%
    16:00 +20°C° 0 mm 6 mps 759 mmHg 38%
    17:00 +17°C° 0.1 mm 6 mps 760 mmHg 46%
    18:00 +15°C° 0.1 mm 6 mps 760 mmHg 53%
    19:00 +13°C° 0.1 mm 6 mps 761 mmHg 61%
    20:00 +13°C° 0.1 mm 6 mps 761 mmHg 66%
    21:00 +12°C° 0.1 mm 5 mps 761 mmHg 71%
    22:00 +10°C° 0.1 mm 5 mps 762 mmHg 76%
    23:00 +10°C° 0 mm 5 mps 762 mmHg 79%

    Tomorrow, 21 August, Monday

    Time Temperature Precipitation Wind Pressure Humidity
    00:00 +9°C° 0 mm 5 mps 762 mmHg 82%
    01:00 +10°C° 0 mm 4 mps 762 mmHg 84%
    02:00 +8°C° 0 mm 4 mps 761 mmHg 85%
    03:00 +8°C° 0 mm 4 mps 761 mmHg 86%
    04:00 +9°C° 0 mm 3 mps 761 mmHg 87%
    05:00 +9°C° 0 mm 3 mps 761 mmHg 85%
    06:00 +9°C° 0 mm 3 mps 761 mmHg 82%
    07:00 +10°C° 0 mm 3 mps 762 mmHg 80%
    08:00 +14°C° 0 mm 2 mps 762 mmHg 71%
    09:00 +18°C° 0 mm 2 mps 762 mmHg 61%
    10:00 +21°C° 0 mm 2 mps 762 mmHg 51%
    11:00 +23°C° 0 mm 2 mps 761 mmHg 48%
    12:00 +23°C° 0 mm 2 mps 761 mmHg 46%
    13:00 +24°C° 0 mm 2 mps 760 mmHg 43%
    14:00 +22°C° 0 mm 3 mps 760 mmHg 48%
    15:00 +21°C° 0 mm 3 mps 760 mmHg 53%
    16:00 +20°C° 0 mm 4 mps 759 mmHg 58%
    17:00 +19°C° 0 mm 4 mps 760 mmHg 65%
    18:00 +17°C° 0 mm 4 mps 760 mmHg 73%
    19:00 +15°C° 0 mm 4 mps 761 mmHg 81%
    20:00 +15°C° 0 mm 4 mps 761 mmHg 81%
    21:00 +15°C° 0 mm 4 mps 761 mmHg 80%
    22:00 +15°C° 0 mm 4 mps 761 mmHg 80%
    23:00 +14°C° 0 mm 4 mps 761 mmHg 81%

    Day after tomorrow, 22 August, Tuesday

    Time Temperature Precipitation Wind Pressure Humidity
    00:00 +14°C° 0 mm 4 mps 761 mmHg 83%
    01:00 +13°C° 0 mm 4 mps 760 mmHg 85%
    02:00 +13°C° 0 mm 4 mps 760 mmHg 86%
    03:00 +13°C° 0 mm 4 mps 760 mmHg 87%
    04:00 +12°C° 0 mm 4 mps 760 mmHg 88%
    05:00 +12°C° 0 mm 4 mps 760 mmHg 87%
    06:00 +13°C° 0 mm 4 mps 760 mmHg 86%
    07:00 +13°C° 0 mm 4 mps 761 mmHg 86%
    08:00 +15°C° 0 mm 5 mps 761 mmHg 76%
    09:00 +19°C° 0 mm 5 mps 761 mmHg 66%
    10:00 +22°C° 0 mm 5 mps 761 mmHg 56%
    11:00 +23°C° 0 mm 5 mps 760 mmHg 48%
    12:00 +26°C° 0 mm 5 mps 759 mmHg 40%
    13:00 +28°C° 0 mm 5 mps 758 mmHg 31%
    14:00 +28°C° 0 mm 5 mps 758 mmHg 33%
    15:00 +27°C° 0 mm 5 mps 758 mmHg 34%
    16:00 +27°C° 0 mm 5 mps 758 mmHg 35%
    17:00 +23°C° 0.1 mm 5 mps 758 mmHg 44%
    18:00 +21°C° 0.1 mm 5 mps 759 mmHg 53%
    19:00 +17°C° 0.1 mm 5 mps 760 mmHg 62%
    20:00 +17°C° 0.1 mm 4 mps 760 mmHg 65%
    21:00 +15°C° 0.1 mm 4 mps 761 mmHg 68%
    22:00 +15°C° 0.1 mm 4 mps 761 mmHg 71%
    23:00 +14°C° 0 mm 3 mps 761 mmHg 75%

    23 August, Wednesday

    Time Temperature Precipitation Wind Pressure Humidity
    00:00 +14°C° 0 mm 3 mps 761 mmHg 78%
    01:00 +13°C° 0 mm 3 mps 761 mmHg 81%
    02:00 +13°C° 0 mm 3 mps 761 mmHg 83%
    03:00 +12°C° 0 mm 3 mps 761 mmHg 85%
    04:00 +12°C° 0 mm 3 mps 761 mmHg 87%
    05:00 +12°C° 0 mm 3 mps 761 mmHg 86%
    06:00 +12°C° 0 mm 3 mps 762 mmHg 85%
    07:00 +13°C° 0 mm 3 mps 762 mmHg 84%
    08:00 +17°C° 0 mm 3 mps 762 mmHg 75%
    09:00 +20°C° 0 mm 3 mps 762 mmHg 66%
    10:00 +24°C° 0 mm 3 mps 762 mmHg 57%
    11:00 +26°C° 0 mm 2 mps 761 mmHg 51%
    12:00 +27°C° 0 mm 2 mps 760 mmHg 46%
    13:00 +28°C° 0 mm 2 mps 760 mmHg 40%
    14:00 +27°C° 0 mm 2 mps 759 mmHg 44%
    15:00 +26°C° 0 mm 3 mps 759 mmHg 47%
    16:00 +25°C° 0 mm 3 mps 759 mmHg 50%
    17:00 +22°C° 0 mm 3 mps 760 mmHg 63%
    18:00 +20°C° 0 mm 3 mps 760 mmHg 76%
    19:00 +18°C° 0 mm 3 mps 760 mmHg 89%
    20:00 +18°C° 0 mm 2 mps 761 mmHg 90%
    21:00 +17°C° 0 mm 2 mps 761 mmHg 91%
    22:00 +18°C° 0 mm 1 mps 761 mmHg 91%
    23:00 +16°C° 0 mm 1 mps 761 mmHg 92%

    24 August, Thursday

    Time Temperature Precipitation Wind Pressure Humidity
    00:00 +16°C° 0 mm 2 mps 760 mmHg 93%
    01:00 +16°C° 0 mm 2 mps 760 mmHg 94%
    02:00 +16°C° 0 mm 2 mps 760 mmHg 94%
    03:00 +15°C° 0 mm 2 mps 759 mmHg 94%
    04:00 +15°C° 0 mm 2 mps 759 mmHg 95%
    05:00 +15°C° 0.1 mm 2 mps 759 mmHg 93%
    06:00 +15°C° 0.1 mm 2 mps 760 mmHg 92%
    07:00 +15°C° 0.1 mm 2 mps 760 mmHg 91%
    08:00 +18°C° 0.1 mm 2 mps 760 mmHg 74%
    09:00 +21°C° 0.1 mm 2 mps 760 mmHg 57%
    10:00 +25°C° 0.1 mm 2 mps 760 mmHg 41%
    11:00 +27°C° 0 mm 3 mps 759 mmHg 35%
    12:00 +28°C° 0 mm 3 mps 758 mmHg 29%
    13:00 +29°C° 0 mm 3 mps 757 mmHg 24%
    14:00 +28°C° 0 mm 3 mps 757 mmHg 28%
    15:00 +28°C° 0 mm 4 mps 757 mmHg 32%
    16:00 +27°C° 0 mm 4 mps 757 mmHg 36%
    17:00 +23°C° 0.5 mm 4 mps 757 mmHg 45%
    18:00 +21°C° 0.5 mm 3 mps 758 mmHg 53%
    19:00 +19°C° 0.5 mm 3 mps 759 mmHg 62%
    20:00 +18°C° 0.1 mm 3 mps 759 mmHg 69%
    21:00 +17°C° 0.1 mm 4 mps 759 mmHg 76%
    22:00 +15°C° 0.1 mm 4 mps 759 mmHg 83%
    23:00 +15°C° 0.1 mm 4 mps 759 mmHg 85%

    25 August, Friday

    Time Temperature Precipitation Wind Pressure Humidity
    00:00 +14°C° 0.1 mm 5 mps 759 mmHg 86%
    01:00 +14°C° 0.1 mm 6 mps 759 mmHg 88%
    02:00 +14°C° 0 mm 5 mps 759 mmHg 88%
    03:00 +13°C° 0 mm 5 mps 759 mmHg 88%
    04:00 +13°C° 0 mm 5 mps 759 mmHg 88%
    05:00 +13°C° 0 mm 5 mps 760 mmHg 86%
    06:00 +12°C° 0 mm 5 mps 760 mmHg 83%
    07:00 +12°C° 0 mm 5 mps 760 mmHg 80%
    08:00 +15°C° 0 mm 5 mps 760 mmHg 71%
    09:00 +17°C° 0 mm 5 mps 760 mmHg 61%
    10:00 +20°C° 0 mm 5 mps 760 mmHg 51%
    11:00 +22°C° 0 mm 5 mps 760 mmHg 46%
    12:00 +23°C° 0 mm 5 mps 759 mmHg 41%
    13:00 +25°C° 0 mm 4 mps 759 mmHg 36%
    14:00 +23°C° 0 mm 5 mps 759 mmHg 39%
    15:00 +22°C° 0 mm 5 mps 758 mmHg 43%
    16:00 +21°C° 0 mm 6 mps 758 mmHg 47%
    17:00 +20°C° 0 mm 6 mps 759 mmHg 57%
    18:00 +17°C° 0 mm 5 mps 759 mmHg 67%
    19:00 +15°C° 0 mm 5 mps 760 mmHg 77%
    20:00 +14°C° 0 mm 5 mps 760 mmHg 80%
    21:00 +14°C° 0 mm 4 mps 760 mmHg 83%
    22:00 +13°C° 0 mm 4 mps 761 mmHg 85%
    23:00 +13°C° 0.2 mm 4 mps 761 mmHg 87%
    Show more